Flag for Brazil Weather past 2 weeks in Niterói, Rio de Janeiro, Brazil

Now
70 °F

Passing clouds.


Feels Like: 70 °F
Forecast: N/A
Wind: 6 mph from Southwest

Location: Rio De Janeiro Airport

Current Time: Sep 22, 2014 at 8:03:35 PM

Latest Report: Sep 22, 2014 at 7:00 PM


Visibility: N/A

Pressure: 30.15 "Hg

Humidity: 78%

Dew point: 63 °F

Location of NiteróiLocation

Historic Weather in Niterói — Graph

°F

Niterói temperature yesterday

Maximum temperature yesterday: 73 °F (at 6:00 AM)
Minimum temperature yesterday: 68 °F (at 1:00 PM)
Average temperature yesterday: 71 °F

Past Weeks' High & Low Weather Summary

 TemperatureHumidityPressure
High91 °F (Sep 11, 2:00 PM)94% (Sep 12, 6:00 AM)30.18 "Hg (Sep 12, 6:00 AM)
Low66 °F (Sep 9, 6:00 AM)30% (Sep 15, 2:00 PM)29.80 "Hg (Sep 15, 3:00 PM)
Average75 °F74%30.01 "Hg
* Reported Sep 7 7:00 PM — Sep 22 7:00 PM, Niterói, Weather by CustomWeather, © 2014

Note: Actual official high and low records may vary slightly from our data, if they occured in-between our weather recording intervals... More about our weather records

Advertising

Niterói weather history for previous 24 hours

 ConditionsComfort  
Time TempWeatherWind HumidityBarometerVisibility
7:00 PM
Sep 22
70 °FPassing clouds.6 mph78%30.15 "HgN/A
6:00 PM70 °FPassing clouds.7 mph73%30.15 "HgN/A
5:00 PM73 °FPassing clouds.10 mph65%30.12 "HgN/A
4:00 PM73 °FPassing clouds.14 mph61%30.12 "HgN/A
3:00 PM75 °FPassing clouds.14 mph57%30.12 "HgN/A
2:00 PM75 °FPassing clouds.21 mph57%30.12 "HgN/A
1:00 PM75 °FPartly sunny.18 mph61%30.15 "HgN/A
12:00 PM75 °FPartly sunny.15 mph61%30.15 "HgN/A
11:00 AM75 °FPartly sunny.13 mph57%30.15 "HgN/A
10:00 AM77 °FPartly sunny.10 mph54%30.15 "HgN/A
9:00 AM75 °FScattered clouds.10 mph54%30.15 "HgN/A
8:00 AM73 °FScattered clouds.9 mph61%30.15 "HgN/A
7:00 AM70 °FScattered clouds.7 mph69%30.12 "HgN/A
6:00 AM68 °FPassing clouds.10 mph69%30.09 "HgN/A
11:00 PM
Sep 21
70 °FLight rain. Mostly cloudy.2 mph88%30.07 "HgN/A
10:00 PM70 °FLight rain. Passing clouds.7 mph83%30.07 "HgN/A
9:00 PM70 °FPassing clouds.5 mph83%30.07 "HgN/A
8:00 PM70 °FPassing clouds.5 mph73%30.04 "HgN/A
Weather by CustomWeather, © 2014

See weather overviewHow to use our weather pages